DELTA 1 DEB

基本信息
目录编号:
7063
目录名称:
DELTA 1 DEB
国际标识:
1973-086BF
轨道中心:
EARTH
物体状态:
在轨
发射日期:
1973-11-06 UTC
轨道信息
数据来源: 国际轨道数据
星历时间: 2026-09-13T15:16:21+0800
半长轴: 7639.922km
偏心率: 0.0292253
轨道倾角: 102.477°
近地点辐角: 253.212°
升交点赤经: 25.345°
平近点角: 133.563°
近地点: 1038.505km
远地点: 1485.065km
周期: 110.763分钟
每日圈数: 13.000781
详细信息
发射场:
AFWTR
轨道高度:
LEO
数据来源:
AOE Integration Group
参考系:
TEME
时间系统:
UTC
历元类型:
SGP4
2D轨道图
3D轨道图
轨道高度分析图
轨道倾角分析图
轨道综合分析图
查看轨道综合分析图